KAR3657 UNNT-VVCR

Flight info

Callsign KAR3657
Flight time N/A
Altitude 37000
Route OGATI1L OGATI A308 ARBAR G117 NOSPI B330 NIGOR/K0878S1130 Y962 MORIT/K0895S1190 B330 NOLOM/K0900S1160 B330 IPDAT/K0900S1190 B330 UBKER/K0887S1220 G212 LUVEN/K0889S1190 G212 BOPTU/K0891S1220 G212 SGM/K0891S1190 A599 LXI/K0893F390 DCT NOB/K0895F400 Q1 BMT W7 LKH W15 SOSPA DCT BANKE BANKE1A
Aircraft B772/H-SDE2E3FGHIJ5LORVWXY/LB1D1

Departure

Time 2026-05-01 15:31
Airport Novosibirsk Tolmachevo Airport (UNNT)

Arrival

Time N/A
Airport Cam Ranh International Airport / Cam Ranh Air Base (VVCR)
Time Latitude Longitude Altitude Speed Heading
2026-05-01 14:23 55.01036 82.67145 377 ft 0 kts 171°
2026-05-01 15:07 55.01052 82.67140 377 ft 4 kts 168°
2026-05-01 15:07 55.01079 82.67131 377 ft 4 kts 179°
2026-05-01 15:07 55.01097 82.67138 377 ft 3 kts 248°
2026-05-01 15:07 55.01105 82.67169 377 ft 4 kts 217°
2026-05-01 15:08 55.01128 82.67177 377 ft 4 kts 167°
2026-05-01 15:08 55.01153 82.67164 377 ft 4 kts 164°
2026-05-01 15:08 55.01165 82.67159 377 ft 0 kts 171°
2026-05-01 15:13 55.01133 82.67164 377 ft 2 kts 176°
2026-05-01 15:14 55.01123 82.67164 377 ft 1 kts 182°
2026-05-01 15:14 55.01103 82.67126 377 ft 8 kts 242°
2026-05-01 15:14 55.01081 82.66939 377 ft 8 kts 275°
2026-05-01 15:15 55.01084 82.66919 377 ft 0 kts 282°
2026-05-01 15:17 55.01088 82.66894 377 ft 3 kts 286°
2026-05-01 15:18 55.01097 82.66817 377 ft 2 kts 275°
2026-05-01 15:18 55.01097 82.66789 377 ft 3 kts 270°
2026-05-01 15:19 55.01122 82.66666 377 ft 5 kts 334°
2026-05-01 15:19 55.01194 82.66639 377 ft 6 kts 351°
2026-05-01 15:19 55.01235 82.66628 377 ft 6 kts 351°
2026-05-01 15:20 55.01248 82.66625 377 ft 1 kts 351°
2026-05-01 15:20 55.01252 82.66624 377 ft 1 kts 351°
2026-05-01 15:20 55.01254 82.66623 377 ft 0 kts 351°
2026-05-01 15:26 55.01255 82.66623 377 ft 1 kts 351°
2026-05-01 15:26 55.01272 82.66619 377 ft 5 kts 352°
2026-05-01 15:26 55.01322 82.66602 378 ft 10 kts 343°
2026-05-01 15:26 55.01371 82.66506 379 ft 13 kts 278°
2026-05-01 15:27 55.01358 82.66322 378 ft 18 kts 261°
2026-05-01 15:27 55.01336 82.66072 377 ft 23 kts 261°
2026-05-01 15:27 55.01309 82.65779 376 ft 26 kts 261°
2026-05-01 15:28 55.01246 82.65090 377 ft 31 kts 261°
2026-05-01 15:28 55.01224 82.64834 377 ft 33 kts 261°
2026-05-01 15:28 55.01173 82.64295 379 ft 35 kts 260°
2026-05-01 15:29 55.01095 82.63437 377 ft 36 kts 261°
2026-05-01 15:29 55.01058 82.63020 376 ft 33 kts 261°
2026-05-01 15:29 55.00969 82.62431 379 ft 13 kts 221°
2026-05-01 15:30 55.00999 82.62375 379 ft 7 kts 72°
2026-05-01 15:31 55.01470 82.67901 1613 ft 185 kts 88°
2026-05-01 15:31 55.01826 82.71401 3328 ft 168 kts 88°
2026-05-01 15:32 55.02169 82.75507 4035 ft 192 kts 97°
2026-05-01 15:32 55.01585 82.80725 4047 ft 250 kts 105°
2026-05-01 15:33 55.00579 82.90010 5849 ft 267 kts 104°
2026-05-01 15:34 54.99552 82.99814 7810 ft 283 kts 104°